Regional Weather Roundup
Issued by NWS

Home | Current Version | Previous Version | Graphics & Text | Print | Product List | Glossary On
Versions: 1 2 3 4 5 6 7 8 9 10 11 12 13 14 15 16 17 18 19 20 21 22 23 24 25 26 27 28 29 30 31 32 33 34 35 36 37 38 39 40 41 42 43 44 45 46 47 48 49 50
277
ASUS45 KBOU 310407
RWRCO

WEATHER ROUNDUP FOR COLORADO
NATIONAL WEATHER SERVICE DENVER/BOULDER CO
1000 PM MDT TUE AUG 30 2016

NOTE: "FAIR" INDICATES FEW OR NO CLOUDS BELOW 12000 FEET WITH NO
SIGNIFICANT WEATHER AND/OR OBSTRUCTIONS TO VISIBILITY.

COZ001>005-013-030-031-310500-
...NORTHWEST COLORADO...

CITY           SKY/WX    TMP DP  RH WIND       PRES   REMARKS
CRAIG          FAIR      69  37  30 NE14      30.25R
HAYDEN         FAIR      64  37  36 E10       30.29R
MEEKER         FAIR      67  41  38 NE6       30.27R
MOUNT WERNER   NOT AVBL
STEAMBOAT SPGS FAIR      64  39  40 CALM      30.32S
WALDEN         FAIR      54  37  54 E6        30.46R
$$

COZ006>008-011-310500-
...WEST CENTRAL VALLEYS...

CITY           SKY/WX    TMP DP  RH WIND       PRES   REMARKS
GRAND JUNCTION FAIR      70  37  29 E5        30.14R
MONTROSE       FAIR      68  46  45 S9        30.25R
EAGLE          FAIR      64  43  45 E6        30.34R
RIFLE          FAIR      72  45  37 E8        30.22R
DELTA          FAIR      74  40  30 E9        30.20R
NUCLA          NOT AVBL
$$

COZ017>023-064>068-310500-
...SOUTHWEST COLORADO...

CITY           SKY/WX    TMP DP  RH WIND       PRES   REMARKS
DURANGO        MOCLDY    62  45  53 CALM      30.32R
CORTEZ         MOCLDY    64  50  60 NE6       30.25R
PAGOSA SPRINGS FAIR      56  43  60 CALM      30.41R
TELLURIDE      CLOUDY    53  46  77 CALM      30.53R
WOLF CREEK PAS FAIR      45  37  76 E6        30.71S
$$

COZ009-010-012-014-032>034-037-058>063-310500-
...CENTRAL COLORADO...

CITY           SKY/WX    TMP DP  RH WIND       PRES   REMARKS
ASPEN          FAIR      57  43  59 S8        30.41R
BUENA VISTA    FAIR      52  47  84 W5        30.49R
COPPER MTN     FAIR      46  34  61 SE3       30.70R
BERTHOUD PASS  FAIR      36  25  64 E26G32    30.74S
COTTONWOOD PAS FAIR      52  41  66 CALM      30.60R
GUNNISON       FAIR      59  43  55 N5        30.44R
KREMMLING      FAIR      54  41  62 CALM      30.42R
LEADVILLE      FAIR      41  37  86 CALM      30.58R
MONARCH PASS   FAIR      41  39  93 E16       30.79R
SALIDA         CLOUDY    60  48  64 NW5       30.53R
SUNLIGHT       FAIR      54  37  54 NW6       30.63S
WILKERSON PASS FAIR      45  36  70 E5        30.71S
$$

COZ069>075-310500-
...SAN LUIS VALLEY/SANGRE DE CRISTO MOUNTAINS...

CITY           SKY/WX    TMP DP  RH WIND       PRES   REMARKS
ALAMOSA        MOCLDY    60  47  61 E18G28    30.40R
LA VETA PASS   NOT AVBL
SAGUACHE       FAIR      59  43  55 N6        30.43R
$$

COZ035-036-038>040-310500-
...NORTHERN COLORADO FRONT RANGE...

CITY           SKY/WX    TMP DP  RH WIND       PRES   REMARKS
DENVER INTL AP MOCLDY    64  54  69 S3        30.33R
DMNS CITY PARK   N/A     62  58  88 SW5       30.33S
AURORA         MOCLDY    64  53  65 S6        30.35R
FRONT RANGE AP NOT AVBL
ERIE MUNI ARPT FAIR      64  52  63 CALM      30.33R
BOULDER MUN AP MOCLDY    64  46  52 SW9       30.34S
CENTENNIAL     LGT RAIN  61  56  83 E3        30.35F
BROOMFIELD     MOCLDY    64  52  63 SW7       30.36R
FORT COLLINS   FAIR      63  54  72 S5        30.33R
LONGMONT       FAIR      67  55  63 S6        30.35R
$$

COZ041-046-047-076>085-087-088-310500-
...PIKES PEAK/PALMER DIVIDE AND SOUTHERN FOOTHILLS...

CITY           SKY/WX    TMP DP  RH WIND       PRES   REMARKS
COLO. SPRINGS  FAIR      62  54  74 CALM      30.40R
A. F. ACADEMY  MOCLDY    61  52  72 SE2       30.39R
SCHRIEVER AFB  NOT AVBL
ELLICOTT       NOT AVBL
FALCON         FAIR      57  54  89 SW3       30.44R
FORT CARSON    FAIR      62  53  72 SW7       30.36R
LIMON          FAIR      57  51  80 CALM      30.33S
MONUMENT HILL  CLOUDY    59  52  77 SW3       30.45R
TRINIDAD       CLOUDY    62  53  72 SW8       30.36R
$$

COZ042>045-048>051-090-091-310500-
...NORTHEAST COLORADO...

CITY           SKY/WX    TMP DP  RH WIND       PRES   REMARKS
GREELEY ARPT   FAIR      63  55  77 E3        30.31R
AKRON          FAIR      60  57  89 SE5       30.30R
BURLINGTON     FAIR      60  55  83 E9        30.25F
WRAY           NOT AVBL
STERLING       FAIR      64  61  88 SE5       30.27R
HOLYOKE        FAIR      66  61  82 E5        30.27S
FORT MORGAN    FAIR      61  57  88 NE3       30.30S
$$

COZ086-089-092>099-310500-
...SOUTHEAST COLORADO...

CITY           SKY/WX    TMP DP  RH WIND       PRES   REMARKS
PUEBLO         FAIR      67  56  67 W6        30.29R
LA JUNTA       FAIR      68  56  65 E5        30.24S
LAMAR          FAIR      66  58  75 CALM      30.23R
SPRINGFIELD      N/A     63  62  97 S6        30.27S
$$




USA.gov is the U.S. government's official web portal to all federal, state and local government web resources and services.